Torna al catalogo

COSMOS 2092

AttivoNavigazionePO
NORAD 20737·PAYLOAD·🇷🇺 Russia

Lanciato Aug 8, 1990 da Plesetsk Cosmodrome

Loading…

Prossimi Passaggi (prossime 24 ore)

TLE

AggiornatoSource: Space-Track

Epoca: Sep 14, 2026, 06:05 UTC

1 20737U 90070C   26257.25375545 -.00000002  00000-0 -67706-4 0  9997
2 20737  82.5637 248.7910 0003244 299.4919  71.6968 12.63351467664606

Traccia COSMOS 2092 in tempo reale con AllMySat

Download on the App Store